www.pogodaiklimat.ru

Погода и климат >> Архив погоды >> Пакистан >> Nokkundi


ПОГОДА в Nokkundi

  • Прогноз погоды в Nokkundi
  • Монитор погоды в Nokkundi
  • Климат города

АРХИВ ПОГОДЫ в Nokkundi

Время (UTC), дата Ветер
(напр.,м/с)
 
Видим.   Явления Облачность Т
(С)
Тd
(С)
f
(%)
Тe
(С)
Тes
(С)
Комфортность P
(гПа)
Po
(гПа)
Тmin
(С)
Tmax
(С)
R
(мм)
R24
(мм)
S
(см)
21 8.12 СВ 1 4000 м ясно +13.0 -9.6 20 +14 +14 1011.0 922.4
00 9.12 СВ 1 4000 м ясно +11.0 -9.0 24 +11 +11 1012.4 933.9
03 9.12 СВ 1 10 км ясно +10.0 -8.7 26 +11 +11 1013.5 934.7 +9.1
06 9.12 СЗ 1 10 км ясно +21.0 -7.1 14 +21 +29 комфорт 1010.9 935.2
09 9.12 СЗ 4 10 км ясно +24.0 -9.5 10 +22 +27 комфорт 1008.6 1000.0
12 9.12 СЗ 5 4000 м пыльный позёмок ясно +23.5 -11.4 9 +21 +21 комфорт 1007.4 1021.9 +24.5
15 9.12 СЗ 3 4000 м пыль ясно +18.0 -10.2 14 +18 +18 1009.1 1000.0
18 9.12 СЗ 2 4000 м пыль ясно +15.0 -9.9 17 +15 +15 1010.8 933.5
21 9.12 СЗ 1 4000 м пыль ясно +12.0 -12.3 17 +13 +13 1011.6 1000.0
00 10.12 СЗ 1 4000 м пыль ясно +10.0 -11.5 21 +10 +10 1013.5 978.9
03 10.12 СЗ 1 10 км ясно +9.0 -11.0 23 +10 +10 1015.0 935.7 +8.5
06 10.12 СЗ 2 10 км ясно +18.5 -8.7 15 +19 +25 1012.8 936.2
09 10.12 СЗ 1 10 км ясно +22.0 -9.9 11 +20 +29 1010.2 1000.0
12 10.12 СЗ 9 4000 м ясно +21.0 -10.1 11 +20 +20 1009.2 1021.4 +22.5
15 10.12 С 2 4000 м ясно +16.0 -10.1 16 +16 +16 1011.6 1000.0
18 10.12 С 1 4000 м ясно +13.0 -9.6 20 +14 +14 1013.5 935.4
21 10.12 С 1 4000 м ясно +10.0 -11.5 21 +11 +11 1014.1 924.8
00 11.12 С 1 4000 м ясно +8.5 -12.3 21 +10 +10 1015.6 936.0
03 11.12 СВ 1 10 км ясно +8.0 -10.6 25 +9 +9 1016.6 936.9 +7.1
06 11.12 СВ 2 10 км ясно +16.5 -11.8 13 +17 +23 1015.1 937.9
09 11.12 В 1 10 км ясно +20.5 -11.9 10 +21 +30 комфорт 1011.9 1000.0
12 11.12 штиль 0 10 км ясно +21.5 -11.8 10 +20 +21 1010.7 1021.0 +22.1
15 11.12 С 1 4000 м ясно +16.0 -10.1 16 +17 +17 1012.5 1000.0
18 11.12 С 1 4000 м ясно +13.0 -9.6 20 +14 +14 1014.7 936.6
21 11.12 СЗ 1 4000 м ясно +10.0 -11.5 21 +11 +11 1015.3 926.2
00 12.12 СЗ 1 4000 м ясно +8.0 -10.6 25 +8 +8 1017.0 937.2
03 12.12 СВ 1 10 км ясно +7.0 -10.1 28 +8 +8 1018.1 938.0 +6.5
06 12.12 Ю 1 10 км ясно +15.0 -9.9 17 +17 +24 1016.4 938.7
09 12.12 Ю 1 10 км ясно +20.0 -10.2 12 +21 +29 комфорт 1013.5 1000.0
12 12.12 ЮЗ 1 10 км ясно +21.5 -11.8 10 +20 +21 1011.5 1020.7 +23.1
15 12.12 ЮВ 1 4000 м ясно +15.0 -13.3 13 +16 +16 1014.1 1000.0
18 12.12 СВ 1 4000 м ясно +11.5 -13.9 15 +13 +13 1016.1 937.5
21 12.12 СВ 1 4000 м ясно +9.0 -14.3 18 +9 +9 1016.8 927.3
00 13.12 СВ 1 4000 м ясно +7.0 -13.0 22 +7 +7 1018.5 938.3
03 13.12 СВ 1 10 км ясно +6.0 -12.3 26 +7 +7 1019.6 939.1 +5.5
06 13.12 ЮВ 1 10 км ясно +15.5 -11.6 14 +16 +24 1017.5 939.9
09 13.12 ЮВ 1 10 км ясно +20.0 -10.2 12 +21 +29 комфорт 1014.9 1000.0
12 13.12 ЮВ 1 10 км ясно +21.0 -10.1 11 +21 +22 комфорт 1013.3 1020.2 +22.1
15 13.12 ЮВ 1 4000 м ясно +15.0 -13.3 13 +16 +16 1015.8 1000.0
18 13.12 СВ 1 4000 м ясно +11.0 -15.6 14 +12 +12 1018.0 939.1
21 13.12 СВ 1 4000 м ясно +9.0 -14.3 18 +10 +10 1018.3 929.0
00 14.12 СВ 1 4000 м ясно +7.5 -11.7 24 +8 +8 1019.7 939.6
03 14.12 СВ 1 10 км ясно +7.0 -13.0 22 +8 +8 1020.9 940.5 +6.1
06 14.12 ЮВ 1 10 км ясно +15.5 -11.6 14 +16 +24 1018.9 941.2
09 14.12 ЮВ 1 10 км ясно +20.0 -10.2 12 +21 +29 комфорт 1016.0 1000.0
12 14.12 ЮВ 1 10 км ясно +21.5 -11.8 10 +20 +21 1014.7 1019.8 +23.1
15 14.12 ЮВ 1 4000 м ясно +15.5 -11.6 14 +17 +17 1016.7 1000.0
18 14.12 С 1 4000 м ясно +12.0 -12.3 17 +13 +13 1018.9 940.1
21 14.12 СВ 1 4000 м ясно +10.0 -11.5 21 +11 +11 1019.1 930.3
00 15.12 СВ 1 4000 м ясно +8.0 -10.6 25 +9 +9 1020.8 940.7
03 15.12 СВ 1 10 км ясно +7.0 -10.1 28 +8 +8 1021.8 941.5 +6.5
06 15.12 ЮВ 1 10 км ясно +18.5 -11.9 12 +19 +27 1020.2 943.0
09 15.12 ЮВ 1 10 км ясно +21.0 -10.1 11 +21 +30 комфорт 1017.5 1000.0
12 15.12 штиль 0 10 км ясно +22.0 -9.9 11 +20 +21 1016.1 939.9 +23.5
15 15.12 В 1 4000 м ясно +15.5 -11.6 14 +17 +17 1018.1 1000.0

 

Местоположение метеостанции Nokkundi (Пакистан): широта 28.82 долгота 62.75 высота над уровнем моря 683 м.

В архиве по умолчанию представлена погода в Nokkundi за последнюю неделю. Архивные данные за месяц целиком и за предыдущие месяцы, начиная с января 2011 года, Вы можете получить, выбрав интересующий диапазон дат из раскрывающегося списка и нажав кнопку "Ввод!".


*Определитесь, кто Вы:
робот инопланетянин человек

Внимание! Время в таблицах - всемирное. Для получения местного времени необходимо прибавить поправку, которая в Nokkundi равна 5 ч.

Смотрите также архив погоды в соседних городах и на ближайших метеорологических станциях:

Погода в Dal Bandin (Пакистан) (161 км)
Погода в Saravan (Иран) (171 км)
Погода в Zahedan (Иран) (196 км)
Погода в Panjgur (Пакистан) (245 км)
Погода в Iranshahr (Иран) (270 км)
Погода в Zabol (Иран) (277 км)
Погода в Lashkargah (Афганистан) (341 км)
Погода в Kalat (Пакистан) (374 км)
Погода в Khuzdar (Пакистан) (396 км)
Погода в Nehbandan (Иран) (399 км)

Пояснения к столбцам:

Ветер - указаны скорость ветра в м/с - средняя за 10 мин, порывы в срок и между сроками (в фигурных скобках) и направление, откуда дует ветер: С - северный, СВ - северо-восточный, В - восточный, ЮВ - юго-восточный, Ю - южный, ЮЗ - юго-западный, З - западный, СЗ - северо-западный.
Видимость - горизонтальная дальность видимости в метрах или километрах. При видимости от 1 до 10 км при отсутствии осадков обычно наблюдается дымка, при ухудшении видимости до 1 км и менее - туман. В сухую погоду видимость может ухудшаться дымом, пылью или мглою.
Явления - указаны атмосферные явления, наблюдавшиеся в срок или в последний час перед сроком; фигурными скобками обозначены явления, наблюдавшиеся между сроками (за 1-3 часа до срока); квадратными скобками обозначены град или гололедные отложения с указанием их диаметра в мм.
Облачность - указаны через наклонную черту общая и нижняя облачность в баллах и высота нижней границы облаков в метрах; квадратными скобками обозначены формы облаков: Ci - перистые, Cs - перисто-слоистые, Cc - перисто-кучевые, Ac - высококучевые, As - высокослоистые, Sc - слоисто-кучевые, Ns - слоисто-дождевые, Cu - кучевые, Cb - кучево-дождевые. Подробнее классификацию облаков см. в Атласе облаков (PDF).
T - Температура воздуха - температура, измеренная на высоте 2 м над землей.
Td - Температура точки росы - температура, при понижении до которой содержащийся в воздухе водяной пар достигнет насыщения.
f - Относительная влажность воздуха - влажноcть воздуха, измеренная на высоте 2 м над землей.
Te - Эффективная температура - температура, которую ощущает одетый по сезону человек в тени. Характеристика душности погоды. При расчете учитывается влияние влажности воздуха и скорости ветра на теплоощущения человека.
Tes - Эффективная температура на солнце - температура, которую ощущает человек, с поправкой на солнечный нагрев. Характеристика знойности погоды. Зависит от высоты солнца над горизонтом, облачности и скорости ветра. Ночью, в пасмурную погоду, а также при ветре 12 м/с и более поправка равна нулю.
P - Атмосферное давление - приведенное к уровню моря атмосферное давление.
Po - Атмосферное давление - измеренное на уровне метеостанции атмосферное давление.
Tmin - Минимальная температура - минимум температуры воздуха на высоте 2 м над землей.
Tmax - Максимальная температура - максимум температуры воздуха на высоте 2 м над землей.
R - Количество осадков - Количество выпавших осадков за период времени, мм. При наведении курсора мыши на число - период времени, за который выпало указанное количество осадков.
R24 - Количество осадков - Количество выпавших осадков за 24 часа, мм.
S - Снежный покров - Высота снежного покрова, см. При наведении курсора мыши на число - состояние снежного покрова и степень покрытия местности в баллах.